| time (UTC) | temp C | wind direction | speed KPH | gust KPH | rain 1hr cm | rain 24hr cm | rain mn cm | humidity % | barometer mb |
| 20260507080024 | 7 | 78 | 9.7 | 19.3 | 0.00 | 0.00 | 0.00 | 91 | 1010.5 |
| 20260507074544 | 7 | 26 | 11.3 | 19.3 | 0.00 | 0.03 | 0.00 | 91 | 1010.3 |
| 20260507073021 | 7 | 51 | 6.4 | 16.1 | 0.00 | 0.03 | 0.00 | 91 | 1010.2 |
| 20260507071519 | 7 | 81 | 4.8 | 14.5 | 0.00 | 0.03 | 0.00 | 90 | 1010.1 |
| 20260507070021 | 7 | 44 | 4.8 | 14.5 | 0.00 | 0.03 | 0.00 | 90 | 1010.0 |
| 20260507064517 | 7 | 61 | 9.7 | 17.7 | 0.00 | 0.05 | 0.00 | 90 | 1009.9 |
| 20260507063022 | 7 | 25 | 4.8 | 14.5 | 0.00 | 0.05 | 0.00 | 90 | 1009.8 |
| 20260507061514 | 7 | 360 | 6.4 | 12.9 | 0.00 | 0.05 | 0.00 | 90 | 1009.6 |
| 20260507060010 | 7 | 49 | 3.2 | 14.5 | 0.00 | 0.05 | 0.00 | 90 | 1009.3 |
| 20260507054512 | 7 | 54 | 6.4 | 11.3 | 0.00 | 0.15 | 0.00 | 90 | 1009.2 |
| 20260507053008 | 7 | 44 | 6.4 | 16.1 | 0.00 | 0.15 | 0.00 | 90 | 1009.1 |
| 20260507051508 | 6 | 72 | 8.0 | 16.1 | 0.00 | 0.15 | 0.00 | 90 | 1009.0 |
| 20260507050017 | 6 | 76 | 11.3 | 17.7 | 0.00 | 0.15 | 0.00 | 90 | 1009.0 |
| 20260507044502 | 6 | 59 | 8.0 | 14.5 | 0.00 | 0.48 | 0.00 | 90 | 1008.8 |
| 20260507043002 | 6 | 62 | 6.4 | 14.5 | 0.00 | 0.48 | 0.00 | 90 | 1008.6 |
| 20260507041604 | 6 | 23 | 8.0 | 19.3 | 0.00 | 0.48 | 0.00 | 90 | 1008.6 |
| 20260507040056 | 6 | 78 | 4.8 | 14.5 | 0.00 | 0.48 | 0.00 | 90 | 1008.5 |
| 20260507034600 | 6 | 49 | 4.8 | 17.7 | 0.00 | 0.66 | 0.00 | 90 | 1008.4 |
| 20260507033100 | 6 | 55 | 6.4 | 14.5 | 0.00 | 0.66 | 0.00 | 90 | 1008.4 |
| 20260507031605 | 7 | 42 | 6.4 | 16.1 | 0.00 | 0.66 | 0.00 | 90 | 1008.2 |
| 20260507030055 | 7 | 69 | 8.0 | 14.5 | 0.00 | 0.66 | 0.00 | 90 | 1008.0 |
| 20260507024548 | 7 | 66 | 8.0 | 16.1 | 0.00 | 0.84 | 0.00 | 90 | 1007.8 |
| 20260507023051 | 7 | 63 | 8.0 | 20.9 | 0.00 | 0.84 | 0.00 | 91 | 1007.8 |
| 20260507021545 | 7 | 46 | 8.0 | 16.1 | 0.00 | 0.84 | 0.00 | 91 | 1007.8 |
| 20260507020047 | 7 | 50 | 8.0 | 22.5 | 0.00 | 0.84 | 0.00 | 92 | 1007.7 |
| 20260507014549 | 7 | 9 | 6.4 | 20.9 | 0.00 | 1.02 | 0.00 | 92 | 1007.7 |
| 20260507013039 | 7 | 5 | 8.0 | 16.1 | 0.00 | 1.02 | 0.00 | 91 | 1007.5 |
| 20260507011538 | 7 | 44 | 11.3 | 19.3 | 0.00 | 1.02 | 0.00 | 90 | 1007.3 |
| 20260507010035 | 8 | 46 | 11.3 | 20.9 | 0.00 | 1.02 | 0.00 | 89 | 1007.2 |
| 20260507004528 | 8 | 59 | 9.7 | 24.1 | 0.00 | 1.42 | 0.00 | 89 | 1007.1 |
| 20260507003025 | 9 | 57 | 6.4 | 19.3 | 0.00 | 1.42 | 0.00 | 88 | 1006.8 |
| 20260507001526 | 9 | 46 | 11.3 | 20.9 | 0.00 | 1.42 | 0.00 | 87 | 1006.6 |
| 20260507000031 | 10 | 46 | 11.3 | 20.9 | 0.00 | 1.42 | 0.00 | 87 | 1006.6 |
| 20260506234516 | 10 | 61 | 6.4 | 11.3 | 0.00 | 1.68 | 0.00 | 87 | 1006.5 |
| 20260506233017 | 10 | 64 | 6.4 | 12.9 | 0.00 | 1.68 | 0.00 | 87 | 1006.6 |
| 20260506231517 | 10 | 51 | 6.4 | 14.5 | 0.00 | 1.68 | 0.00 | 88 | 1006.7 |
| 20260506230001 | 10 | 5 | 6.4 | 16.1 | 0.00 | 1.68 | 0.00 | 88 | 1006.4 |
| 20260506224602 | 10 | 45 | 4.8 | 9.7 | 0.00 | 1.78 | 0.00 | 88 | 1006.4 |
| 20260506223104 | 10 | 51 | 3.2 | 9.7 | 0.00 | 1.78 | 0.00 | 87 | 1006.5 |
| 20260506221559 | 10 | 65 | 4.8 | 9.7 | 0.00 | 1.78 | 0.00 | 87 | 1006.4 |
| 20260506220054 | 10 | 49 | 4.8 | 11.3 | 0.00 | 1.78 | 0.00 | 87 | 1006.3 |
| 20260506214554 | 10 | 49 | 3.2 | 9.7 | 0.00 | 1.78 | 1.78 | 87 | 1006.3 |
| 20260506213110 | 10 | 65 | 4.8 | 14.5 | 0.00 | 1.78 | 1.78 | 86 | 1006.3 |
| 20260506211551 | 10 | 39 | 4.8 | 19.3 | 0.00 | 1.78 | 1.78 | 86 | 1006.1 |
| 20260506210050 | 10 | 38 | 6.4 | 17.7 | 0.00 | 1.78 | 1.78 | 86 | 1006.2 |
| 20260506204551 | 10 | 45 | 12.9 | 19.3 | 0.00 | 1.78 | 1.78 | 86 | 1006.0 |
| 20260506203044 | 10 | 32 | 6.4 | 16.1 | 0.00 | 1.78 | 1.78 | 87 | 1006.0 |
| 20260506201542 | 11 | 61 | 4.8 | 19.3 | 0.00 | 1.78 | 1.78 | 87 | 1005.9 |
| 20260506200038 | 11 | 42 | 8.0 | 17.7 | 0.00 | 1.78 | 1.78 | 88 | 1005.9 |
| 20260506194538 | 11 | 39 | 6.4 | 17.7 | 0.00 | 1.80 | 1.78 | 88 | 1005.6 |
| 20260506193035 | 11 | 47 | 6.4 | 16.1 | 0.00 | 1.80 | 1.78 | 88 | 1005.5 |
| 20260506191534 | 11 | 36 | 8.0 | 14.5 | 0.00 | 1.80 | 1.78 | 87 | 1005.4 |
| 20260506190017 | 11 | 69 | 8.0 | 17.7 | 0.00 | 1.80 | 1.78 | 87 | 1005.1 |
| 20260506184516 | 11 | 70 | 6.4 | 12.9 | 0.00 | 1.80 | 1.78 | 88 | 1004.9 |
| 20260506183016 | 11 | 5 | 6.4 | 17.7 | 0.00 | 1.80 | 1.78 | 88 | 1004.9 |
| 20260506181514 | 12 | 46 | 4.8 | 14.5 | 0.00 | 1.80 | 1.78 | 88 | 1004.9 |
| 20260506180014 | 12 | 22 | 8.0 | 14.5 | 0.00 | 1.80 | 1.78 | 88 | 1004.6 |
| 20260506174513 | 12 | 360 | 4.8 | 14.5 | 0.00 | 1.80 | 1.78 | 88 | 1004.5 |
| 20260506173013 | 12 | 38 | 3.2 | 9.7 | 0.00 | 1.80 | 1.78 | 88 | 1004.5 |
| 20260506171512 | 12 | 38 | 6.4 | 16.1 | 0.00 | 1.80 | 1.78 | 87 | 1004.4 |
| 20260506170011 | 12 | 67 | 4.8 | 14.5 | 0.00 | 1.80 | 1.78 | 87 | 1004.3 |
| 20260506164510 | 12 | 77 | 8.0 | 17.7 | 0.00 | 1.80 | 1.78 | 87 | 1004.3 |
| 20260506163021 | 12 | 63 | 8.0 | 17.7 | 0.00 | 1.80 | 1.78 | 87 | 1004.3 |
| 20260506161509 | 12 | 50 | 6.4 | 14.5 | 0.00 | 1.80 | 1.78 | 87 | 1004.2 |
| 20260506160016 | 12 | 5 | 8.0 | 14.5 | 0.00 | 1.80 | 1.78 | 86 | 1004.4 |
| 20260506154508 | 12 | 61 | 4.8 | 16.1 | 0.00 | 1.80 | 1.78 | 85 | 1004.4 |
| 20260506153007 | 12 | 53 | 8.0 | 17.7 | 0.00 | 1.80 | 1.78 | 85 | 1004.4 |
| 20260506151507 | 12 | 15 | 8.0 | 17.7 | 0.00 | 1.80 | 1.78 | 86 | 1004.5 |
| 20260506150005 | 13 | 76 | 6.4 | 16.1 | 0.00 | 1.80 | 1.78 | 86 | 1004.6 |
| 20260506144504 | 13 | 355 | 6.4 | 14.5 | 0.00 | 1.80 | 1.78 | 86 | 1004.5 |
| 20260506143003 | 13 | 5 | 4.8 | 14.5 | 0.00 | 1.80 | 1.78 | 87 | 1004.5 |
| 20260506141503 | 12 | 71 | 6.4 | 14.5 | 0.00 | 1.80 | 1.78 | 87 | 1004.4 |
| 20260506140001 | 13 | 62 | 4.8 | 17.7 | 0.00 | 1.80 | 1.78 | 87 | 1004.5 |
| 20260506134501 | 12 | 313 | 6.4 | 9.7 | 0.00 | 1.80 | 1.78 | 86 | 1004.5 |
| 20260506133001 | 12 | 15 | 4.8 | 11.3 | 0.00 | 1.80 | 1.78 | 87 | 1004.5 |
| 20260506131604 | 12 | 318 | 4.8 | 12.9 | 0.00 | 1.80 | 1.78 | 89 | 1004.5 |
| 20260506124559 | 12 | 349 | 6.4 | 14.5 | 0.00 | 1.80 | 1.78 | 88 | 1004.4 |
| 20260506123058 | 12 | 26 | 4.8 | 16.1 | 0.00 | 1.80 | 1.78 | 89 | 1004.3 |
| 20260506121559 | 12 | 333 | 8.0 | 14.5 | 0.00 | 1.80 | 1.78 | 90 | 1004.4 |
| 20260506120100 | 12 | 336 | 3.2 | 9.7 | 0.00 | 1.80 | 1.78 | 90 | 1004.3 |
| 20260506114605 | 12 | 5 | 3.2 | 8.0 | 0.00 | 1.80 | 1.78 | 90 | 1004.4 |
| 20260506113056 | 12 | 348 | 3.2 | 9.7 | 0.00 | 1.80 | 1.78 | 90 | 1004.3 |
| 20260506111555 | 12 | 344 | 3.2 | 6.4 | 0.00 | 1.80 | 1.78 | 91 | 1004.2 |
| 20260506104554 | 12 | 345 | 4.8 | 14.5 | 0.00 | 1.80 | 1.78 | 91 | 1003.9 |
| 20260506103054 | 12 | 326 | 3.2 | 12.9 | 0.00 | 1.80 | 1.78 | 92 | 1003.8 |
| 20260506101603 | 12 | 22 | 4.8 | 12.9 | 0.00 | 1.80 | 1.78 | 93 | 1003.5 |
| 20260506100052 | 12 | 345 | 6.4 | 14.5 | 0.00 | 1.80 | 1.78 | 94 | 1003.5 |
| 20260506094615 | 12 | 342 | 8.0 | 16.1 | 0.00 | 1.83 | 1.78 | 95 | 1003.3 |
| 20260506093055 | 12 | 15 | 8.0 | 16.1 | 0.00 | 1.83 | 1.78 | 96 | 1003.1 |
| 20260506091551 | 12 | 347 | 9.7 | 17.7 | 0.00 | 1.83 | 1.78 | 96 | 1002.9 |
| 20260506090050 | 11 | 5 | 6.4 | 17.7 | 0.00 | 1.83 | 1.78 | 97 | 1002.8 |
| 20260506084549 | 11 | 336 | 8.0 | 19.3 | 0.00 | 1.83 | 1.78 | 97 | 1002.6 |
| 20260506083047 | 11 | 323 | 6.4 | 16.1 | 0.00 | 1.83 | 1.78 | 97 | 1002.6 |
| 20260506081545 | 11 | 360 | 6.4 | 9.7 | 0.00 | 1.83 | 1.78 | 97 | 1002.6 |